Location: Central Springs High School
(43.2862°N, 93.1962°W)
Time: 04:25:39
(UTC+00:00)

ARIANE 6 FM1 Upper Stage - Visible Passes

Search period start: 14 October 2024 00:00
Search period end: 24 October 2024 00:00
Orbit: 563 x 595 km, 62.0° (Epoch: 13 October)

Date Brightness Start Highest point End Pass type
(mag) Time Alt. Az. Time Alt. Az. Time Alt. Az.
14 Oct 5.1 00:52:32 10° NNE 00:52:57 10° NNE 00:53:22 10° NNE visible
14 Oct 5.4 02:29:24 10° NNW 02:30:13 15° NNW 02:30:13 15° NNW visible
15 Oct 4.9 00:55:36 10° N 00:57:38 13° NNE 00:58:09 13° NE visible
15 Oct 5.4 02:33:33 10° NNW 02:34:26 16° NNW 02:34:26 16° NNW visible
16 Oct 4.6 00:59:24 10° N 01:02:14 17° NNE 01:02:24 17° NE visible
16 Oct 5.5 02:37:47 10° NW 02:38:41 16° NW 02:38:41 16° NW visible
17 Oct 4.2 01:03:19 10° NNW 01:06:41 22° NE 01:06:41 22° NE visible
17 Oct 5.6 02:42:08 10° NW 02:42:58 15° NW 02:42:58 15° NW visible
18 Oct 3.8 01:07:20 10° NNW 01:11:03 30° NE 01:11:03 30° NE visible
18 Oct 5.7 02:46:35 10° NW 02:47:20 14° WNW 02:47:20 14° WNW visible
19 Oct 3.2 01:11:25 10° NNW 01:15:29 44° NE 01:15:29 44° NE visible
19 Oct 5.9 02:51:13 10° WNW 02:51:47 13° WNW 02:51:47 13° WNW visible
20 Oct 2.6 01:15:34 10° NW 01:19:55 68° NE 01:20:00 68° ENE visible
20 Oct 6.0 02:56:17 10° W 02:56:19 10° W 02:56:19 10° W visible
20 Oct 4.4 23:41:13 10° NNW 23:44:20 19° NE 23:47:28 10° E visible
21 Oct 2.8 01:19:47 10° NW 01:24:09 77° SW 01:24:40 66° S visible
21 Oct 3.9 23:45:08 10° NNW 23:48:47 25° NE 23:52:27 10° E visible
22 Oct 3.6 01:24:06 10° NW 01:28:18 48° WSW 01:29:30 37° SSW visible
22 Oct 3.5 23:49:07 10° NNW 23:53:09 36° NE 23:57:11 10° ESE visible
23 Oct 4.5 01:28:35 10° WNW 01:32:24 30° WSW 01:34:33 20° SSW visible
